RH
62 61 60 58 57 56 54 54 53 52 52 53 53 52 51 49 45 42 38 34 30 27 24 22 20 18 17 16 15 16 17 19 21 23 25 26 28 30 31 32 32 33 33 33 34 36 37 39 41 43 46 50 53 56 60 63 66 69 72 75 79 82 86 89 90 90 90 90 88 87 86 86 87 87 87 88 88 88 87 87 88 89 90 91 91 90
56 56 55 54 54 53 53 53 53 54 54 52 48 44 38 33 28 24 21 19 17 16 16 16 17 17 17 17 18 21 24 27 29 31 33 35 37 39 40 41 41 40 38 36 35 33 33 33 33 34 36 39 42 45 49 53 58 62 68 73 78 83 88 92 95 98 100 101 102 101 101 102 103 103 103 103 104 102 100 99 99 98 96 95 94 95
59 60 59 59 59 58 57 55 52 48 42 36 30 25 22 19 18 17 18 18 18 19 19 21 24 23 24 27 31 35 38 39 40 41 42 43 44 46 48 48 47 45 43 40 38 36 35 34 33 32 32 32 33 34 36 38 41 45 50 54 59 65 70 75 80 86 90 94 97 98 100 101 102 104 105 104 105 103 102 102 102 102 100 98 97 97
59 57 55 53 51 48 44 39 35 30 26 24 23 22 23 24 25 25 26 28 28 28 30 32 32 30 34 41 45 47 48 48 47 47 46 46 46 47 46 45 43 41 39 38 36 35 34 33 32 32 31 31 31 32 32 33 34 35 36 38 40 43 46 50 54 58 62 65 68 71 74 77 79 82 85 87 88 88 89 91 91 93 93 92 92 92
40 37 35 33 31 30 28 27 26 26 27 27 27 28 28 30 31 31 32 34 34 34 37 38 33 31 37 43 45 46 45 44 43 42 42 42 41 40 38 37 35 34 33 32 32 31 31 30 30 30 30 30 31 31 32 32 32 32 32 33 34 35 36 37 38 40 42 43 45 47 48 50 52 54 56 59 60 60 61 64 65 66 68 70 72 73
28 27 27 27 27 27 27 27 27 28 28 28 28 28 28 28 29 29 29 29 29 30 32 31 27 26 29 32 34 34 34 34 34 34 35 35 34 33 32 31 30 30 30 30 29 29 29 29 30 30 30 30 31 31 31 31 31 32 32 33 33 34 34 35 35 36 37 38 38 39 39 39 40 41 40 41 41 41 42 42 43 44 44 45 46 47
28 27 27 27 27 27 27 27 27 27 27 28 27 27 27 27 27 27 27 26 26 27 28 28 28 25 24 26 29 32 33 34 36 37 37 37 36 35 34 34 34 34 34 34 35 35 35 35 35 35 35 35 36 36 37 37 38 38 38 39 39 40 40 41 41 41 41 41 41 41 41 40 39 39 39 39 40 40 40 40 39 38 37 35 35 35
27 26 26 26 26 27 27 27 27 27 28 28 28 29 29 29 29 29 29 28 29 29 29 33 35 29 25 28 33 36 39 41 43 43 43 41 40 39 39 39 39 39 39 40 40 40 40 40 40 41 41 41 42 42 43 43 43 43 44 45 47 47 48 48 48 48 47 46 46 45 44 44 44 45 46 45 44 42 41 40 40 40 40 40 40 39
26 26 26 27 27 28 28 29 29 30 31 31 31 31 31 31 31 31 32 32 32 31 32 37 37 31 27 29 34 38 40 42 43 42 41 40 39 40 40 40 40 40 40 40 40 40 41 41 42 42 43 43 43 44 45 46 46 46 46 46 47 47 47 47 47 47 46 45 45 46 47 49 50 50 50 49 49 49 48 48 48 47 47 46 45 44
27 28 29 29 30 30 30 31 31 31 31 31 31 31 30 30 30 30 30 30 29 28 30 32 31 27 24 24 28 30 32 33 33 32 31 30 31 32 32 33 33 33 34 35 36 37 38 39 40 41 42 43 44 45 46 47 47 47 46 45 44 44 44 44 44 44 44 44 45 47 49 50 50 50 50 50 51 50 50 49 46 44 42 40 39 37
30 30 31 31 31 31 31 31 31 30 30 29 29 28 27 26 25 25 24 24 23 22 23 23 22 21 19 18 21 22 22 22 22 22 22 22 22 23 23 23 24 24 25 26 27 28 30 32 34 36 37 38 39 39 40 41 41 41 41 40 40 40 39 39 40 40 41 41 41 42 42 43 44 45 45 45 44 43 41 40 39 38 37 36 36 35
30 30 29 29 29 28 28 27 27 26 25 24 24 23 22 21 20 20 20 20 19 19 19 20 20 20 18 18 21 21 21 21 21 21 21 21 22 22 22 22 22 23 23 23 24 25 26 27 29 30 31 31 31 31 32 33 35 35 36 37 37 37 37 37 38 38 39 38 38 39 39 40 41 41 42 43 43 43 43 43 43 43 43 43 44 45
25 24 24 23 22 22 21 21 21 20 20 20 20 20 19 19 19 20 21 21 21 21 21 22 22 22 22 22 22 22 23 23 23 23 23 23 23 23 24 24 25 25 26 27 27 27 28 28 29 30 30 31 32 33 34 35 37 38 39 40 42 42 42 43 44 45 46 46 47 48 48 49 50 51 52 53 54 54 55 56 56 56 56 56 56 55
21 20 19 19 19 19 19 19 19 19 20 20 20 20 20 21 20 21 23 23 24 24 24 26 26 26 26 27 26 26 27 27 27 28 28 28 29 30 31 32 32 34 34 35 35 35 36 36 37 38 39 40 41 43 44 45 45 46 47 48 50 51 52 53 54 55 55 56 56 56 56 56 57 58 59 60 61 62 62 63 64 64 65 65 64 63
21 20 20 20 21 21 22 23 23 24 24 24 25 25 26 26 25 25 27 28 29 30 31 32 32 33 34 34 35 35 34 34 35 35 36 37 39 41 42 42 43 44 45 46 47 48 48 49 50 51 52 52 53 54 55 55 56 56 57 57 58 59 60 60 61 61 61 61 60 60 59 59 58 59 60 60 60 60 60 60 60 61 61 62 62 61
25 24 24 25 26 27 28 29 29 30 30 31 32 32 33 33 33 33 33 34 35 36 37 39 40 41 41 41 42 43 42 42 42 42 44 45 47 48 49 49 50 51 53 55 56 57 59 60 62 63 64 64 64 65 65 66 66 66 66 67 67 68 68 68 68 68 68 68 67 67 66 65 64 63 63 62 60 59 58 57 56 55 54 53 53 52
31 30 29 31 32 33 34 35 35 36 37 37 38 39 40 40 40 40 40 41 41 41 42 44 46 47 47 46 47 48 47 47 47 47 48 49 49 50 51 52 53 54 55 56 57 59 60 62 64 65 66 66 67 68 69 69 69 70 71 71 72 72 72 73 73 73 73 73 72 72 71 70 69 68 66 64 63 60 58 56 55 53 51 49 48 47
37 38 36 36 38 39 39 40 40 40 41 42 42 43 43 43 44 44 43 43 43 43 43 44 45 46 47 47 47 48 48 47 47 47 47 47 47 48 48 48 49 49 49 50 52 54 55 57 59 61 62 62 64 65 66 68 68 69 69 70 71 71 71 70 70 70 70 69 69 69 68 68 66 65 64 62 60 58 56 54 51 49 47 44 41 39
38 40 39 38 40 41 40 41 41 41 42 43 43 43 44 44 45 45 44 43 42 42 41 42 43 43 43 44 43 43 44 44 45 44 44 45 45 46 46 46 46 46 47 48 49 51 52 53 54 56 57 58 59 60 62 63 64 64 64 63 63 63 62 61 61 60 59 58 57 56 55 54 53 52 50 48 46 44 42 39 37 34 32 30 28 26
36 38 39 38 38 40 40 40 41 41 40 40 40 40 41 41 42 43 43 41 40 39 38 38 40 41 41 41 40 41 41 41 42 42 42 43 43 44 44 44 44 44 45 45 46 47 48 49 49 50 50 51 51 51 51 51 51 51 49 47 46 45 44 43 42 41 40 39 37 36 35 34 33 32 31 30 29 27 25 24 22 20 19 17 16 15
34 35 36 36 35 36 36 36 36 37 36 36 36 36 35 35 35 35 36 35 34 34 32 31 32 33 34 34 34 34 34 34 34 34 34 34 34 35 35 35 35 35 35 35 35 36 36 36 35 35 35 34 34 34 33 33 32 32 30 29 28 27 26 26 25 24 24 23 23 22 22 22 21 21 20 19 18 17 16 14 13 13 12 11 11 10
31 32 32 33 33 33 33 33 32 33 33 32 31 31 31 30 30 29 29 28 27 26 24 22 22 22 22 22 23 23 22 22 22 21 21 21 21 22 22 23 23 22 23 22 22 22 22 22 21 21 20 20 20 20 19 19 19 19 19 18 18 18 17 17 17 17 16 16 16 15 15 14 14 13 12 11 11 10 10 9 9 9 8 8 8 7
29 30 30 29 29 29 28 28 27 26 25 24 23 23 22 22 21 21 20 20 19 18 17 16 15 14 15 15 15 15 15 15 15 15 15 14 15 15 15 15 15 15 15 14 14 14 14 14 14 13 13 13 13 13 13 13 13 13 13 12 12 12 12 12 11 11 11 10 10 10 9 9 9 9 8 8 8 8 8 8 7 7 7 7 7 6
26 25 25 24 22 21 20 19 18 17 16 16 15 15 14 14 14 13 13 13 12 12 12 12 12 11 11 12 12 12 12 12 12 12 12 12 11 11 11 11 11 11 11 11 11 11 10 10 10 10 10 10 10 10 10 10 10 10 10 10 10 10 10 10 9 9 9 9 9 8 8 8 8 8 8 7 7 7 7 7 6 6 6 6 6 6
20 19 18 17 16 16 15 15 15 14 14 13 13 13 12 12 12 12 11 11 11 11 11 10 10 10 10 10 10 10 10 10 10 10 9 9 9 9 9 9 9 9 9 9 9 9 9 10 10 10 10 10 10 11 11 11 11 11 11 10 10 10 9 9 9 8 8 8 7 7 7 7 6 6 6 6 6 6 6 6 6 6 6 6 6 6
16 15 14 14 14 14 14 15 15 15 14 13 13 13 12 12 12 11 11 10 10 10 9 9 9 9 9 9 9 9 9 9 8 8 9 9 9 9 9 9 9 9 9 10 10 10 10 10 10 10 10 10 11 11 11 11 10 10 9 9 8 8 8 8 7 7 7 7 7 7 7 7 7 7 7 7 7 7 7 7 7 6 6 6 6 6
14 14 13 13 13 13 13 13 13 13 13 12 12 11 11 11 10 10 9 9 9 8 8 8 8 8 8 8 8 8 8 8 8 8 9 9 9 9 9 9 9 9 10 10 10 10 10 10 10 10 10 10 10 10 10 9 9 9 8 8 8 7 7 7 7 7 8 8 8 8 8 8 7 7 7 7 7 6 6 6 6 5 5 5 5 5
15 15 14 14 14 14 13 13 12 12 11 11 10 10 9 9 8 8 8 7 7 7 8 8 8 8 8 8 8 8 8 9 9 9 9 9 9 9 9 10 10 10 10 10 10 10 10 10 10 10 9 9 9 9 9 8 8 8 8 8 8 8 8 8 8 8 8 7 7 7 7 6 6 6 6 5 5 5 5 5 4 4 4 4 4 3
15 15 15 14 14 14 13 13 13 12 11 11 10 9 9 8 8 8 7 7 7 7 8 8 8 8 8 8 8 8 9 9 8 9 9 9 9 9 10 10 10 10 10 10 10 10 9 9 8 8 8 8 8 8 8 8 8 8 8 8 8 7 7 7 7 6 6 6 6 5 5 5 5 5 5 4 4 4 4 4 3 3 3 3 3 3
17 17 16 17 17 16 16 15 14 13 12 12 11 10 10 9 9 9 8 9 9 9 9 9 9 9 9 9 9 8 9 9 9 9 9 9 9 9 9 9 9 9 9 9 8 8 8 8 8 8 8 8 8 9 8 9 8 8 8 8 7 7 7 6 6 6 6 5 5 5 4 4 4 4 4 4 4 4 4 4 3 3 3 3 3 3
22 22 21 20 19 18 16 15 14 13 12 11 11 10 10 10 9 9 9 9 10 10 9 9 9 9 9 9 9 9 9 9 9 9 9 9 9 8 8 8 8 8 8 8 8 8 8 9 9 9 9 9 9 9 9 9 8 8 7 7 7 6 6 6 5 5 5 4 4 4 4 4 4 4 4 4 4 4 4 4 4 3 3 3 3 3
29 27 25 22 20 18 16 14 13 12 11 11 11 11 11 10 10 9 9 9 10 10 10 10 10 10 10 10 10 10 9 9 9 9 9 9 8 8 8 8 9 9 9 9 9 9 10 10 10 10 9 9 9 9 9 8 8 8 7 7 7 6 5 5 5 4 4 4 4 4 4 4 4 4 4 4 4 4 3 3 3 3 3 3 3 3
34 31 28 25 21 18 16 13 12 11 11 11 11 11 11 11 10 10 9 10 10 9 10 10 10 10 10 10 10 10 10 9 9 9 9 9 9 9 9 9 10 10 10 10 10 10 10 10 9 9 9 9 9 9 8 8 8 7 7 6 6 5 5 5 4 4 4 4 4 4 4 4 4 4 4 4 4 3 3 3 3 3 3 3 3 2
34 31 29 27 24 20 18 15 13 12 11 11 10 10 11 11 11 11 10 10 10 10 10 10 10 11 11 11 11 11 11 10 10 10 10 10 10 10 10 10 10 11 11 10 10 10 10 10 9 9 9 9 9 8 8 7 6 6 5 5 5 5 5 5 4 4 4 4 4 4 4 4 4 4 4 4 4 3 3 3 3 3 3 3 3 3
33 31 29 27 24 22 19 16 14 11 10 10 10 10 11 11 11 11 11 11 11 11 12 12 12 12 12 12 12 12 12 11 10 10 11 11 11 11 11 11 11 11 10 10 10 9 9 9 9 9 8 8 8 7 7 6 6 6 5 5 5 5 5 5 4 4 4 4 4 4 4 4 4 4 4 4 4 3 3 3 3 3 3 2 2 3
35 32 29 26 24 22 19 16 14 12 11 11 10 10 10 10 11 11 11 12 12 13 13 13 13 13 13 13 13 13 13 12 11 11 11 11 11 11 11 11 10 10 10 10 9 9 9 9 9 8 8 8 8 7 7 6 6 6 6 6 6 5 5 5 5 5 4 4 4 4 4 4 4 4 4 3 3 3 3 3 3 2 3 3 2 3
38 33 29 27 24 21 19 18 18 16 13 12 11 10 10 10 10 11 11 12 12 13 14 14 14 14 14 13 13 13 13 12 11 11 11 11 10 10 10 10 10 9 9 9 9 9 9 8 8 8 8 8 7 7 7 7 6 6 6 6 6 5 5 5 5 4 4 4 4 4 4 4 4 3 4 3 3 3 3 3 3 2 2 3 3 3
40 35 31 29 27 26 24 21 20 18 14 12 11 10 9 9 10 10 11 11 12 13 14 14 14 13 12 12 12 12 12 12 11 11 10 10 10 10 10 9 9 9 9 9 9 9 8 8 8 8 8 7 7 7 7 6 6 6 6 6 6 5 5 5 4 4 4 4 3 4 3 3 4 3 4 4 3 3 3 2 3 3 3 3 3 3
47 44 42 40 40 41 38 30 23 20 16 13 11 10 9 9 9 9 10 10 11 12 12 12 12 12 11 11 11 11 11 11 11 10 10 10 9 9 10 9 9 9 9 9 9 8 8 8 8 8 8 7 7 7 7 6 6 6 6 5 5 5 4 4 4 3 4 3 3 4 3 3 4 3 4 4 3 3 3 3 3 3 3 3 3 2
61 58 56 53 49 48 47 41 33 27 23 18 13 11 10 10 9 9 9 9 10 10 11 11 11 11 10 10 10 10 10 10 10 10 9 10 9 9 9 9 9 9 9 8 8 8 7 8 7 7 7 7 7 7 6 6 6 6 5 5 4 4 4 4 4 4 4 4 4 4 4 3 4 4 3 3 3 3 3 2 3 2 2 3 3 2
65 62 59 55 51 48 48 47 43 37 31 25 19 14 12 10 10 9 9 9 9 10 10 11 11 11 11 10 10 10 10 9 10 10 9 9 9 9 9 9 9 9 8 8 8 7 7 7 7 7 7 6 7 7 6 6 6 5 5 5 4 4 4 4 4 4 4 4 4 3 4 3 3 4 3 3 3 3 2 2 2 3 3 2 2 2
61 62 60 57 53 49 46 47 47 42 34 28 22 17 13 11 11 10 10 10 9 10 10 11 11 12 11 11 11 10 10 10 10 10 9 9 9 9 9 9 9 9 9 8 8 7 8 7 7 7 7 6 6 7 6 6 6 5 5 5 4 4 4 4 4 4 4 4 4 3 3 3 3 3 3 3 3 3 2 2 3 3 3 3 2 2
59 61 61 58 55 50 46 43 41 38 34 30 25 21 17 14 12 10 10 10 10 10 10 11 12 13 12 12 12 11 11 11 10 10 10 10 10 10 9 9 9 9 9 8 8 8 8 8 7 7 7 7 7 7 6 6 6 5 5 5 4 4 4 4 4 4 4 3 3 3 3 3 3 3 3 3 3 3 3 3 3 3 3 3 3 2
61 61 63 62 59 56 53 49 47 46 45 42 36 29 22 17 14 11 10 10 10 10 11 11 12 13 13 13 12 12 12 11 11 11 10 10 10 10 9 9 9 9 8 8 8 8 8 8 7 7 7 7 7 6 6 6 6 5 5 5 4 4 4 4 4 3 3 3 3 3 3 3 3 3 4 3 3 3 3 3 3 3 3 3 3 3
68 67 68 71 72 73 71 69 67 65 62 56 48 39 30 23 18 14 11 11 10 11 11 11 12 13 13 13 13 12 12 11 11 11 10 10 10 9 9 9 8 8 8 8 8 8 8 8 7 7 7 7 6 6 6 6 5 5 5 4 4 4 4 4 3 3 3 3 3 3 3 3 3 3 4 4 3 3 3 3 3 3 3 3 3 3
75 75 76 78 83 86 86 84 80 77 74 67 58 47 36 28 23 18 14 12 11 11 11 11 12 13 13 14 13 13 12 12 11 11 11 10 10 9 9 9 9 8 8 8 8 8 8 8 7 7 7 6 6 6 6 5 5 5 5 4 4 4 4 3 4 4 3 3 3 3 4 4 3 4 4 4 4 3 3 3 3 3 3 3 3 3
79 81 81 82 84 89 93 94 91 87 83 76 66 55 43 33 27 22 17 14 12 11 11 11 11 13 13 14 14 13 13 12 12 11 11 11 10 10 9 9 9 9 8 8 8 8 8 7 7 7 6 6 6 6 6 5 5 5 5 5 4 4 4 4 4 4 4 4 3 3 4 4 3 4 4 3 4 3 3 3 3 3 3 3 3 3
80 82 83 84 84 87 93 98 98 95 90 83 75 64 51 39 32 27 21 17 14 12 11 11 11 12 13 14 14 14 13 13 12 12 12 11 11 10 10 9 9 9 8 8 8 8 8 7 7 7 7 6 6 6 6 5 5 5 5 4 4 4 4 4 4 4 4 4 4 3 4 4 3 4 4 3 4 3 3 3 3 3 3 3 3 3
81 83 84 85 86 86 89 94 98 99 96 91 82 71 56 43 35 30 25 19 15 13 12 11 11 11 13 14 14 14 14 13 13 13 12 12 11 10 10 10 9 9 8 8 8 8 8 7 7 7 6 6 6 6 5 5 5 5 5 4 4 4 4 4 4 4 4 4 4 3 3 4 4 4 4 4 4 3 3 3 3 3 3 3 4 4
83 84 85 86 87 88 90 93 97 100 100 96 87 75 61 47 38 33 28 22 17 14 13 12 11 11 12 13 14 15 14 13 13 13 13 12 12 11 10 10 9 9 8 8 8 8 8 7 7 7 6 6 6 6 5 5 5 5 5 5 4 5 5 4 4 4 4 4 4 3 3 4 4 4 4 4 4 4 3 3 3 3 3 3 3 4
85 87 88 89 90 91 92 92 94 96 98 96 89 78 66 52 41 35 29 24 20 16 14 13 12 11 12 13 14 15 15 14 13 13 13 13 12 11 10 10 9 8 8 8 8 8 8 7 7 6 6 6 6 5 5 5 5 5 5 5 5 5 5 4 4 4 4 4 3 3 4 3 3 4 4 4 4 4 4 4 3 3 3 3 3 3
Wind_Speed
73 75 76 77 77 78 79 79 80 80 81 82 83 83 84 85 85 85 85 85 86 85 85 84 84 83 82 82 81 80 79 78 77 77 77 77 77 77 78 78 79 80 81 82 83 83 84 85 85 86 86 87 87 87 88 88 89 89 90 90 91 92 93 94 94 95 96 97 98 99 100 100 101 101 101 102 102 103 103 103 103 102 102 102 102 101
72 73 75 76 77 78 78 79 80 80 81 81 82 82 82 82 82 81 80 80 80 79 78 77 77 77 76 75 75 74 73 73 73 73 73 73 74 74 75 76 77 78 79 80 81 82 83 84 85 85 86 86 87 88 88 89 89 90 91 91 92 93 94 95 95 96 97 98 99 99 100 101 101 101 102 103 103 104 104 104 104 104 104 104 105 105
72 74 75 77 78 78 79 79 80 79 79 79 78 77 76 75 74 73 72 72 72 72 70 70 71 71 70 69 69 69 70 70 71 71 72 72 73 74 75 76 77 78 79 80 81 82 83 84 84 85 86 86 87 88 88 89 90 91 92 92 93 94 95 96 97 98 99 100 101 102 102 103 103 104 104 105 106 106 107 107 107 108 108 108 109 109
73 75 76 76 77 77 77 76 75 73 72 71 70 69 68 67 67 66 66 66 67 66 65 66 67 67 66 67 68 69 70 70 71 72 73 74 75 76 77 78 79 80 81 82 83 84 84 85 86 86 87 87 88 88 89 90 90 91 92 93 94 95 96 97 98 99 100 101 102 103 104 105 105 106 107 108 109 109 110 110 111 111 112 112 113 113
68 69 69 69 69 68 68 67 66 65 64 64 64 63 63 63 64 64 64 64 65 64 65 67 67 65 65 67 69 70 71 72 73 73 75 76 77 78 79 80 81 82 83 84 84 85 86 87 87 88 89 89 90 90 91 92 92 93 93 94 95 96 97 98 98 100 101 102 103 104 104 105 106 107 108 109 110 110 111 112 112 113 113 114 114 115
61 61 61 61 61 61 61 61 61 62 62 63 63 63 63 63 64 65 65 66 66 65 66 68 68 66 67 69 70 71 72 73 74 75 77 78 79 80 81 82 83 84 85 85 86 87 88 88 89 90 91 91 92 93 93 94 95 95 96 97 97 98 99 100 101 102 103 103 104 105 106 107 107 108 109 109 110 111 111 112 112 113 113 114 114 115
59 59 59 59 59 60 61 61 62 62 62 63 64 64 65 65 66 66 67 68 67 67 68 69 71 70 68 69 71 73 74 75 76 78 79 81 82 83 84 84 85 86 87 88 88 89 90 90 91 92 93 93 94 95 96 96 97 98 98 99 100 101 101 102 103 104 105 106 107 108 108 109 110 110 111 111 112 112 113 113 114 115 115 115 115 116
59 60 60 60 60 61 62 62 63 63 64 65 65 66 66 67 67 68 69 69 70 70 69 70 73 74 71 69 72 75 76 77 79 81 82 83 84 85 86 86 87 88 89 89 90 91 92 92 93 94 94 95 96 97 97 98 99 100 100 101 102 102 103 104 105 106 107 108 108 109 110 110 111 111 112 113 114 114 114 115 115 116 116 116 117 117
60 61 61 61 62 63 63 64 64 65 66 66 67 67 68 68 69 69 70 71 72 72 71 72 76 77 73 71 73 76 77 79 81 82 84 84 85 86 87 88 88 89 90 91 91 92 93 93 94 95 95 96 97 97 98 99 100 101 101 102 103 103 104 105 106 107 108 108 109 109 110 110 111 112 113 113 114 115 115 115 116 116 117 117 117 118
61 62 63 63 64 64 65 65 66 66 67 68 68 69 69 70 70 70 71 71 72 72 71 73 76 77 74 71 73 76 77 79 81 82 83 84 85 86 87 88 89 89 90 91 91 92 92 93 94 95 95 96 97 97 98 99 100 101 102 103 103 104 105 105 106 107 108 108 109 109 110 111 111 112 113 113 114 115 115 115 116 116 116 116 116 117
63 63 64 64 65 65 66 66 67 67 68 68 69 69 70 70 70 70 70 71 72 70 71 73 74 76 74 71 72 76 76 78 80 80 82 83 83 84 85 86 87 88 88 89 90 90 91 92 93 93 94 95 96 97 97 98 99 100 101 102 103 103 104 105 105 106 107 108 108 109 109 110 111 111 112 113 113 114 114 115 115 115 115 115 116 116
62 63 63 63 64 64 65 65 66 66 67 67 68 68 68 68 68 68 68 70 70 69 70 72 73 74 73 71 72 75 76 77 78 79 80 81 82 83 83 84 85 86 86 87 88 89 89 90 91 92 93 94 95 95 96 97 98 99 100 101 102 103 103 104 105 105 106 107 107 108 109 109 110 111 111 112 113 114 115 115 115 116 116 116 117 117
62 62 62 62 62 63 63 63 64 64 65 65 66 66 66 66 66 65 66 68 69 69 69 70 72 72 72 72 72 73 74 76 77 78 79 79 80 81 82 83 84 84 85 86 87 88 89 90 90 91 92 93 94 95 96 97 97 99 100 101 102 103 104 104 105 106 107 108 108 109 110 111 111 112 113 114 114 115 116 117 118 119 119 120 120 121
61 62 61 60 60 61 61 61 62 63 63 64 64 65 65 66 65 64 65 66 67 68 68 69 71 71 71 72 73 73 74 75 76 77 78 79 80 81 82 83 84 85 86 87 88 89 90 91 92 93 94 95 96 97 98 99 100 101 102 103 104 105 106 107 108 109 110 111 112 112 113 114 114 115 116 117 118 119 120 121 121 122 123 124 125 126
59 60 60 59 59 60 60 61 61 62 63 63 64 65 65 66 66 65 65 66 67 68 69 70 72 72 73 74 75 75 76 77 78 79 80 81 82 83 84 85 86 87 88 90 91 92 93 94 95 96 97 98 99 100 101 102 103 104 105 106 107 108 110 111 112 113 114 115 116 117 117 118 119 120 121 122 123 123 124 125 126 127 128 128 129 130
57 59 58 58 59 59 60 61 61 62 63 63 64 65 66 67 68 68 67 68 69 69 70 71 73 74 76 76 77 78 79 80 81 81 82 83 84 86 87 88 89 90 91 92 93 94 96 97 98 99 100 101 102 103 104 106 107 108 109 110 111 112 113 115 116 117 118 119 120 121 122 123 124 125 126 127 128 128 129 130 131 132 132 133 134 135
56 59 58 58 58 60 60 61 62 63 63 64 65 66 67 68 69 70 70 70 71 71 71 72 74 76 78 78 79 80 81 82 83 84 85 86 87 89 90 91 92 93 94 95 96 97 99 100 101 102 104 105 106 107 108 110 111 112 113 114 115 116 118 119 120 121 122 123 124 125 127 128 129 130 131 132 133 134 135 135 136 137 137 138 138 139
54 57 58 57 58 60 61 62 62 63 64 65 66 67 68 69 70 72 72 73 74 74 73 74 76 78 80 81 82 83 84 85 86 87 88 89 91 92 93 95 96 97 98 99 100 101 103 104 105 107 108 109 110 111 112 114 115 116 118 119 120 121 122 123 124 126 127 128 129 130 131 132 133 134 135 136 137 138 139 139 140 141 141 142 142 142
54 57 59 59 60 62 63 64 65 66 67 68 69 70 71 72 73 75 77 77 78 78 78 78 80 82 84 85 86 87 88 89 90 91 93 94 95 96 98 99 100 101 102 103 104 105 107 108 109 110 112 113 114 115 117 118 119 121 122 123 124 125 126 127 128 129 131 132 133 133 134 135 136 137 138 139 140 140 141 141 142 142 143 143 143 143
57 59 62 63 63 65 67 68 69 70 71 72 72 73 75 76 77 78 81 82 82 83 83 82 83 85 87 89 90 91 92 93 94 95 96 97 98 100 101 102 103 104 105 106 107 109 110 111 112 113 115 116 117 118 119 121 122 123 124 125 126 127 128 129 130 131 132 133 133 134 135 135 136 137 137 138 139 140 140 141 141 141 141 141 141 141
60 62 64 66 66 67 69 70 71 73 74 75 75 76 78 78 79 80 82 83 84 85 85 85 84 86 88 89 91 92 93 94 95 96 97 98 99 100 102 103 104 105 106 107 108 109 111 112 113 114 115 116 117 118 119 121 122 123 124 125 126 126 127 128 128 129 130 131 131 132 132 133 134 134 135 136 137 137 138 138 138 138 138 138 138 138
62 63 64 66 67 68 70 71 72 73 74 75 75 76 78 79 80 81 81 83 84 85 85 85 85 84 86 87 89 90 91 92 94 95 95 96 97 99 100 102 103 104 105 106 107 108 109 110 112 112 113 114 115 116 117 118 119 120 121 122 123 124 124 125 126 126 127 128 128 129 129 130 131 132 132 133 133 134 134 134 134 134 134 134 134 134
62 64 64 65 66 67 68 69 70 71 72 73 73 74 75 76 77 78 78 79 81 82 83 83 83 83 83 85 86 87 89 90 91 92 93 94 95 96 98 99 100 101 103 104 105 106 107 108 109 110 110 111 112 113 114 115 116 117 118 119 120 120 121 122 122 123 124 124 125 125 126 126 127 127 127 128 128 128 128 129 129 129 129 128 128 128
60 61 62 63 64 65 66 66 67 67 68 69 70 71 71 72 73 74 75 75 77 78 79 80 81 81 81 82 84 85 86 87 88 90 91 92 93 94 96 97 98 99 100 101 102 103 104 105 106 106 107 108 109 109 110 111 113 113 114 115 115 116 117 117 118 119 119 119 120 120 120 121 121 121 122 122 122 122 123 123 123 123 123 123 123 123
57 57 58 59 60 61 63 64 65 66 67 67 68 69 70 71 71 72 73 73 74 75 76 78 78 79 79 80 82 83 84 85 86 87 88 89 91 92 93 94 95 96 97 98 99 100 101 101 102 103 103 104 105 106 107 108 109 110 110 111 111 111 112 112 113 113 113 113 114 114 114 115 115 115 116 116 117 117 117 118 118 118 118 118 118 118
54 55 55 56 56 57 58 59 61 62 64 65 66 67 68 69 70 70 71 72 73 74 74 76 76 77 77 78 80 81 82 83 84 85 85 87 88 89 90 91 92 93 94 95 96 97 97 98 98 99 99 100 100 101 102 103 104 105 106 106 106 107 107 107 108 108 109 109 109 110 110 111 111 111 112 113 113 114 114 114 115 115 115 115 115 115
53 53 54 55 55 56 57 57 58 59 61 62 63 64 65 66 67 68 69 70 71 72 72 74 75 75 76 77 78 79 80 81 82 82 83 84 86 87 87 88 89 90 91 91 92 93 94 94 95 95 96 96 97 98 99 100 101 102 102 103 103 104 104 105 105 106 106 106 107 107 107 108 108 109 109 110 110 111 111 112 112 112 112 112 112 112
52 52 53 54 55 56 57 58 59 60 60 61 62 63 64 65 65 66 67 68 68 69 69 71 72 73 73 74 75 76 77 78 79 80 81 82 83 84 85 86 86 87 88 89 89 90 90 91 92 92 93 93 94 95 96 97 98 99 100 100 100 101 102 102 102 103 103 103 104 104 104 105 105 106 106 106 107 107 107 108 108 108 108 108 108 108
50 51 52 53 55 56 57 59 60 61 63 64 65 66 67 67 67 68 69 69 69 69 69 69 71 71 72 73 73 74 75 76 77 78 79 80 81 82 82 83 83 84 85 85 86 86 86 87 88 88 89 90 91 92 93 94 94 95 96 96 97 97 98 99 99 100 100 101 101 101 101 101 102 102 102 102 102 102 102 102 102 102 103 103 103 103
51 52 54 55 56 57 58 60 61 62 64 65 65 66 67 68 68 68 68 68 68 68 68 68 69 70 71 72 72 73 73 74 75 76 76 77 77 78 78 78 79 79 80 80 81 81 82 82 83 83 84 85 86 87 88 89 91 92 92 93 94 95 96 97 97 97 98 98 98 97 97 97 97 97 97 97 97 97 97 97 97 97 98 98 98 98
51 52 53 53 54 55 56 57 58 59 60 61 62 63 64 65 66 66 65 64 64 65 66 66 67 68 69 70 71 71 71 72 73 73 73 74 74 74 74 75 75 76 76 77 77 78 78 79 80 80 81 82 83 85 86 87 88 90 91 92 93 94 95 95 95 95 95 94 93 93 93 92 92 92 93 92 92 93 93 93 93 93 93 94 94 93
47 48 49 50 50 51 52 53 53 54 56 57 58 59 61 62 64 65 64 62 62 62 63 63 64 65 66 66 67 69 69 70 70 71 71 72 72 72 73 73 74 74 75 75 76 76 76 77 78 79 80 81 82 84 85 87 88 90 91 92 93 93 93 93 93 92 91 91 90 90 89 89 89 89 89 89 89 89 89 89 89 89 89 89 89 88
44 44 45 46 46 47 48 50 51 51 52 53 54 55 57 59 61 63 63 61 61 61 61 61 62 62 63 64 65 66 67 68 69 69 69 70 70 70 71 71 72 72 72 73 73 74 75 76 77 78 79 81 83 84 86 87 88 89 90 91 91 91 91 90 90 89 89 88 88 87 87 86 86 86 86 86 86 86 86 86 85 85 85 84 84 83
42 43 44 45 46 46 48 49 50 51 51 51 52 52 53 54 57 60 60 58 59 60 60 61 61 62 63 63 64 65 66 67 68 68 67 68 68 68 68 69 69 69 70 71 72 73 74 75 76 78 79 81 82 84 85 86 87 87 87 88 88 87 87 87 86 86 85 85 84 84 83 82 82 82 82 82 83 82 82 82 82 82 81 80 80 79
44 44 44 45 46 48 49 49 49 50 51 51 51 51 51 51 53 57 59 58 58 59 59 60 60 61 62 63 63 64 65 66 67 67 66 66 66 66 66 66 67 68 68 70 71 72 74 75 76 77 79 80 81 82 83 84 84 85 85 85 84 84 84 83 82 82 81 81 80 80 79 78 78 79 79 79 79 79 79 78 78 78 77 77 76 75
48 47 46 46 47 48 50 51 53 53 53 54 54 53 52 52 52 54 57 57 57 57 58 58 59 60 61 62 62 63 64 65 65 65 66 65 65 65 65 65 66 67 68 69 71 72 73 74 75 76 77 79 80 81 81 82 82 82 82 81 81 80 80 79 79 78 78 77 77 76 75 75 75 76 76 76 76 76 75 75 75 74 73 73 73 72
53 51 50 50 50 50 51 54 57 58 58 58 58 57 56 55 55 55 56 56 56 56 57 57 58 58 59 59 60 61 62 63 62 62 63 63 63 64 64 65 66 67 67 69 70 71 72 73 73 74 75 77 78 78 78 78 78 77 77 77 77 77 76 76 75 75 74 74 73 73 72 72 72 72 73 73 73 73 72 72 71 70 69 69 69 68
57 56 56 56 57 57 57 57 58 60 60 60 60 61 60 59 58 58 58 58 57 56 56 56 56 56 57 58 58 58 59 61 61 60 60 61 61 62 63 65 65 66 67 67 68 70 70 71 72 72 73 74 75 75 74 74 74 73 73 74 74 74 74 73 72 72 71 71 70 70 69 69 69 69 70 70 71 70 69 69 68 66 65 65 65 65
62 63 64 64 65 67 67 66 64 64 65 64 64 64 64 63 61 59 59 59 58 56 56 56 56 56 57 57 57 57 57 58 60 60 59 60 60 61 62 63 64 64 65 66 67 68 69 69 70 70 71 71 72 72 72 71 71 71 72 72 73 72 72 71 71 70 70 69 68 68 67 67 67 67 67 68 68 67 66 65 65 63 62 61 61 63
69 69 70 70 70 71 72 73 72 71 71 71 70 69 69 69 67 64 62 60 60 59 58 57 57 58 58 58 58 58 58 57 58 59 60 60 60 61 61 62 62 63 63 64 65 66 67 67 67 68 68 68 68 68 69 69 69 70 71 71 71 71 70 70 69 68 68 67 66 66 65 64 64 65 65 65 65 64 63 62 61 60 59 59 59 60
70 71 71 71 71 72 73 75 77 77 77 77 76 75 74 73 72 71 69 66 64 63 61 61 60 61 61 61 61 61 61 60 60 61 61 61 62 62 62 62 62 62 62 63 64 65 65 65 65 65 65 64 64 65 65 66 67 67 68 69 69 69 68 67 66 66 65 65 64 63 62 61 61 62 63 62 62 61 60 58 58 57 56 56 57 56
71 72 73 73 73 74 74 76 77 78 79 79 80 79 79 78 77 76 74 72 70 68 66 65 65 64 64 65 64 64 64 64 64 64 64 64 64 64 64 64 63 63 64 64 65 65 65 66 66 65 64 64 63 63 64 64 65 66 66 66 66 65 64 64 63 63 62 62 61 60 59 58 58 59 60 60 59 58 57 55 54 54 54 54 55 54
74 74 75 75 75 76 76 76 77 79 80 81 82 82 82 82 80 79 77 75 74 72 71 69 68 67 66 66 67 67 67 67 67 68 68 68 68 67 67 66 66 66 66 67 67 67 67 67 67 66 65 65 64 64 64 65 65 65 65 65 65 63 62 61 60 60 59 59 58 57 56 55 56 56 57 57 57 56 55 53 52 51 51 52 53 52
77 77 78 79 79 80 80 81 82 83 85 86 86 87 86 85 84 82 80 78 77 75 74 72 70 68 68 68 68 68 69 69 69 70 70 70 70 69 68 68 67 68 69 69 69 69 69 69 69 68 67 66 66 65 65 65 66 66 65 65 64 63 61 60 59 58 57 57 56 55 54 53 53 54 54 56 56 55 53 51 49 48 48 49 50 49
79 80 81 82 83 84 85 86 86 87 89 89 90 90 90 89 88 86 84 82 80 78 76 74 72 70 69 68 68 69 69 70 70 71 71 70 70 69 69 68 68 69 69 70 70 70 70 69 68 68 67 66 65 65 65 65 65 66 65 65 64 62 60 59 58 57 56 56 54 53 53 53 52 51 51 53 54 53 51 49 47 45 45 47 48 47
81 81 82 83 84 85 86 87 88 89 90 91 92 93 92 92 91 90 88 86 83 81 78 76 74 72 71 69 69 70 70 71 71 71 71 71 71 70 69 69 69 69 69 69 69 69 69 68 67 67 66 65 65 64 64 64 65 65 64 64 63 62 60 58 58 57 56 55 54 52 52 52 50 49 48 50 51 51 49 47 45 43 42 44 45 45
81 82 83 83 84 85 86 88 90 90 92 93 94 94 94 94 93 92 91 89 86 84 81 78 76 75 73 72 71 71 72 72 72 73 73 73 73 72 71 70 70 70 70 69 68 68 68 68 67 66 66 65 65 64 64 64 64 63 63 62 62 61 59 57 57 56 55 54 53 52 51 50 49 48 46 47 48 48 46 44 43 41 40 41 43 43
82 83 83 84 85 86 87 89 90 91 93 94 95 96 96 96 95 94 93 91 89 86 84 81 79 77 75 74 73 72 73 74 74 75 75 75 75 74 73 72 72 72 71 70 69 69 68 68 67 66 66 65 65 64 64 63 63 63 62 61 61 60 59 57 56 55 54 54 52 51 50 49 48 47 46 45 46 47 45 42 41 40 38 38 41 43
84 84 84 85 85 86 87 88 89 91 93 94 95 97 97 97 96 96 95 93 91 89 87 85 82 79 77 76 75 74 74 75 76 76 77 77 77 76 75 74 73 73 73 72 71 70 69 69 68 67 66 65 64 64 63 63 63 62 62 61 60 60 59 58 56 55 54 53 52 50 49 47 47 46 45 44 45 46 45 41 38 37 36 35 36 39
86 85 86 86 86 87 88 89 90 91 93 95 96 97 98 98 98 97 96 95 94 92 90 88 86 83 81 79 77 76 76 77 77 78 78 78 78 77 76 75 75 74 74 73 72 71 71 70 69 68 66 65 64 64 63 63 63 62 61 61 60 60 59 58 57 55 54 53 52 50 48 47 45 45 44 43 42 44 45 43 39 36 35 33 32 34
88 88 88 88 88 88 89 90 91 92 94 95 97 98 99 99 99 98 98 97 96 95 93 91 89 87 84 82 80 79 78 78 79 80 80 80 80 79 77 76 76 75 75 74 73 73 72 71 70 68 67 66 65 64 63 63 63 62 61 60 59 59 58 58 57 56 55 53 52 50 49 47 45 44 43 42 41 41 42 43 41 38 35 33 31 30
Wind_Direction
278 278 278 278 279 279 279 279 279 280 280 280 280 280 280 280 280 279 279 279 279 279 278 278 278 278 278 277 277 277 277 277 276 276 275 275 275 274 274 274 274 274 273 273 273 272 272 272 272 272 272 272 272 272 271 271 271 271 270 270 270 270 270 270 270 270 270 270 270 270 270 270 270 270 270 270 270 269 269 269 269 268 268 268 267 267
280 280 280 280 280 281 281 281 281 282 282 281 281 281 280 280 280 280 280 280 279 279 279 279 279 278 278 278 278 278 278 277 276 275 275 275 274 274 274 274 274 274 273 273 273 273 273 272 272 272 272 272 272 272 272 271 271 271 271 270 270 270 270 270 269 269 269 269 269 269 269 269 269 269 269 269 269 269 268 268 268 268 267 267 267 267
282 282 282 282 282 282 282 282 282 282 282 282 282 281 281 281 281 281 280 280 279 279 279 279 278 278 279 279 279 279 278 277 277 276 276 275 275 275 274 274 274 274 274 274 274 274 274 274 274 274 274 274 273 273 273 273 272 272 272 271 271 271 270 270 270 270 270 269 269 269 269 269 269 269 268 268 268 268 268 268 268 267 267 267 267 267
283 283 283 282 282 282 282 283 283 283 283 283 282 282 282 282 282 282 281 281 280 280 280 279 278 279 280 280 279 279 278 278 278 278 277 277 276 276 275 275 275 275 275 275 275 275 275 275 275 275 275 275 274 274 274 274 273 273 273 272 272 272 272 271 271 271 270 270 270 270 269 269 269 269 269 269 268 268 268 268 268 268 268 267 267 267
284 284 284 283 283 283 283 284 284 284 284 284 284 283 283 283 283 283 282 281 281 281 281 280 279 280 280 279 279 279 278 278 278 278 278 277 277 276 276 276 275 275 275 275 275 275 276 276 276 276 276 275 275 275 275 274 274 274 274 273 273 273 273 273 272 272 272 272 272 271 271 271 271 271 270 270 270 270 270 270 269 269 269 269 269 268
286 285 285 285 285 285 285 285 285 285 285 285 285 284 284 283 283 283 282 281 281 281 281 280 280 280 279 279 279 279 279 279 278 278 277 277 276 276 276 276 276 276 276 276 276 276 276 276 276 276 276 276 276 276 275 275 275 275 275 275 275 274 274 274 274 273 273 273 273 273 273 272 272 272 272 272 272 272 272 271 271 271 270 270 269 269
287 286 286 286 286 286 285 285 285 285 285 284 284 284 283 283 282 282 282 281 281 281 280 280 280 279 277 278 279 279 278 278 278 277 276 276 276 275 275 275 275 275 275 275 275 275 275 275 275 275 275 275 276 276 275 275 275 275 275 275 275 275 274 274 274 274 274 274 273 273 273 273 273 273 273 273 273 273 272 272 272 272 272 272 271 271
287 287 287 287 286 286 286 285 285 285 284 284 283 283 283 282 282 282 282 282 281 281 281 281 280 278 278 278 278 278 278 277 277 276 276 275 275 275 275 275 275 275 275 275 275 275 275 275 275 275 275 275 275 275 275 275 275 275 275 275 275 274 274 274 274 274 273 273 273 273 274 274 274 274 274 274 274 273 273 273 273 273 273 273 273 273
288 288 288 287 287 286 286 285 285 284 284 284 283 283 283 282 282 282 282 282 281 281 281 280 279 279 279 279 278 278 277 277 276 276 276 276 276 276 276 276 276 276 276 276 276 276 276 276 276 276 276 276 275 275 275 275 275 275 275 274 274 274 274 274 274 274 274 274 274 274 274 274 274 274 274 274 274 274 274 274 274 274 274 273 273 273
289 289 288 288 288 287 287 286 286 285 285 284 284 284 283 283 283 283 283 282 282 282 282 280 280 280 280 279 279 278 277 276 276 276 276 276 276 276 276 276 276 276 276 276 276 276 276 276 276 276 276 276 276 276 275 275 275 275 275 275 275 275 275 275 275 275 275 275 275 275 275 274 275 275 275 275 275 274 274 274 274 274 274 274 274 274
290 289 289 289 288 288 288 288 287 287 286 286 285 285 285 285 284 284 284 283 283 283 282 281 281 281 281 280 279 278 277 277 277 277 277 277 277 277 277 277 277 277 277 277 277 277 277 277 277 277 276 276 276 276 276 276 276 276 276 276 276 276 276 276 276 276 276 276 275 275 275 275 275 275 275 275 275 275 275 275 275 275 275 275 275 275
289 289 289 288 288 288 288 287 287 287 286 286 286 286 285 285 285 285 285 285 284 284 283 283 282 282 282 282 280 279 279 279 279 279 278 278 279 279 279 279 279 279 278 278 278 278 278 278 277 277 277 277 277 277 277 277 277 277 277 277 277 277 277 277 277 276 276 276 276 276 276 276 276 276 276 276 276 276 276 276 276 276 275 275 275 275
291 290 289 289 289 289 288 288 288 287 287 287 286 286 286 285 285 286 285 285 285 285 284 284 284 283 283 282 281 280 280 280 280 280 280 280 280 280 280 280 280 280 280 279 279 279 278 278 278 278 278 278 278 278 278 278 277 277 277 277 277 277 277 277 277 277 277 277 277 276 276 276 276 276 276 276 276 276 276 276 276 276 276 275 275 275
293 292 292 291 291 291 290 290 289 289 288 288 288 287 287 286 286 286 286 285 285 285 285 285 284 284 284 283 283 282 281 281 281 281 281 281 281 281 281 281 280 280 280 280 279 279 279 279 279 279 279 279 279 278 278 278 278 278 278 278 278 278 278 278 278 277 277 277 277 277 277 277 276 276 276 276 276 276 275 275 275 275 275 275 275 275
293 293 294 293 293 293 292 291 291 290 290 290 289 289 289 288 288 287 286 286 286 286 286 286 285 285 285 284 284 283 283 282 282 282 282 282 282 281 281 281 281 280 280 280 280 280 280 280 280 280 280 279 279 279 279 279 279 279 279 278 278 278 278 278 278 278 278 278 278 277 277 277 277 276 276 276 276 275 275 275 275 274 274 274 274 274
295 295 295 295 295 294 293 292 292 292 291 291 291 290 290 290 289 289 288 287 286 286 286 286 286 285 285 284 284 284 284 284 283 283 283 282 282 282 281 281 281 281 281 281 281 281 281 281 281 280 280 280 280 280 280 279 279 279 279 279 279 279 278 278 278 278 278 278 278 278 278 277 277 277 276 276 276 276 275 275 275 274 274 274 274 274
297 297 296 296 296 295 294 293 293 292 292 291 291 291 290 290 290 289 288 288 287 286 286 285 285 285 285 285 285 284 284 284 284 283 283 283 282 282 282 282 281 281 281 281 281 281 281 281 281 280 280 280 280 280 280 280 279 279 279 279 279 279 279 279 279 278 278 278 278 278 278 277 277 277 277 277 277 276 276 276 276 276 275 275 275 275
298 297 297 297 296 295 294 294 293 293 292 292 291 291 290 290 290 289 289 288 287 287 286 286 286 285 285 285 285 284 284 284 284 284 283 283 283 282 282 282 282 281 281 281 281 281 281 281 281 281 280 280 280 280 280 280 280 280 279 279 279 279 279 278 278 278 278 278 278 277 277 277 277 277 277 277 277 277 277 277 277 277 276 276 276 276
299 298 298 297 297 296 295 295 294 293 293 292 292 291 291 291 290 290 289 289 288 287 287 286 286 286 286 285 285 285 285 284 284 284 283 283 283 283 282 282 282 282 282 281 281 281 281 281 280 280 280 280 280 280 280 279 279 279 279 279 278 278 278 278 278 278 278 278 278 278 278 278 278 278 278 278 278 278 277 277 277 277 277 276 276 276
299 298 297 296 296 295 295 294 294 293 293 292 291 291 290 290 290 290 289 289 289 288 287 287 287 286 286 286 286 285 285 285 284 284 283 283 283 283 283 282 282 282 282 282 281 281 281 281 280 280 280 280 280 279 279 279 279 279 279 279 279 279 278 278 278 278 278 278 278 278 278 278 278 278 278 278 277 277 277 276 276 276 276 276 276 276
298 297 297 296 296 295 295 294 294 294 293 293 293 292 292 291 291 290 290 290 289 289 288 288 287 286 286 286 286 286 285 285 284 284 284 284 283 283 283 283 283 283 282 282 282 281 281 281 281 280 280 280 280 280 280 280 280 280 280 280 279 279 279 279 279 279 279 279 279 278 278 278 277 277 277 276 276 276 276 276 276 276 276 276 276 276
300 299 298 297 297 297 296 296 296 295 295 294 294 294 293 293 292 292 291 291 291 291 290 290 289 288 287 287 287 286 286 286 286 285 285 285 285 284 284 284 283 283 283 283 282 282 282 282 281 281 281 281 281 281 281 281 280 280 280 280 280 280 280 279 279 279 279 278 278 277 277 277 276 276 276 276 276 276 277 277 277 277 277 277 277 276
302 301 300 300 299 298 298 297 297 296 296 296 295 294 294 293 293 292 292 292 291 291 291 291 290 290 289 288 288 287 287 287 286 286 286 285 285 285 284 284 283 283 283 283 283 283 282 282 282 282 282 282 282 282 281 281 281 281 280 280 280 280 279 279 279 278 278 278 278 278 277 278 278 278 278 277 277 277 277 277 277 277 277 276 276 276
304 303 303 302 302 301 301 300 299 299 298 298 297 297 296 295 295 294 294 293 293 292 292 292 291 291 291 290 289 289 288 288 287 287 287 286 286 285 285 285 284 284 284 284 284 284 283 283 283 283 283 283 283 282 282 282 281 281 281 280 280 280 280 279 279 279 279 279 279 279 279 278 278 278 278 278 277 277 277 277 277 277 276 276 276 276
307 306 305 305 304 304 304 303 303 302 302 301 300 300 299 298 298 297 297 296 295 294 294 293 293 293 292 292 291 290 290 289 289 288 288 288 287 287 287 286 286 286 286 285 285 285 285 285 284 284 284 284 284 283 283 283 282 282 281 281 281 281 280 280 280 280 280 280 279 279 279 279 279 279 278 278 278 278 278 278 278 278 278 277 277 277
310 309 309 307 306 305 305 304 303 303 303 303 302 302 302 301 301 300 299 299 298 297 297 296 296 295 295 294 293 292 292 291 291 290 290 289 289 288 288 288 288 287 287 287 287 286 286 286 286 286 286 285 285 284 284 284 283 283 283 283 283 282 282 282 282 282 282 281 281 281 281 281 281 280 280 280 280 280 280 280 279 279 279 278 278 277
315 314 313 312 311 310 310 308 307 307 306 306 305 305 304 304 304 303 302 301 301 300 300 300 299 298 297 296 295 295 294 293 293 293 292 291 291 290 290 290 290 289 289 289 289 289 289 288 288 288 288 287 287 287 286 286 286 285 285 285 285 285 284 284 284 283 283 283 282 282 282 282 281 281 281 281 281 280 280 280 279 279 279 278 278 277
320 319 318 317 316 315 315 314 313 313 312 311 311 310 309 309 308 307 306 305 304 304 303 302 301 300 299 298 297 296 296 296 295 295 294 294 293 293 293 293 293 292 292 292 292 291 291 291 290 290 290 289 289 288 288 287 287 286 286 286 285 285 285 284 284 284 283 283 283 283 282 282 282 282 282 282 281 281 281 280 280 279 279 278 278 277
324 323 322 322 322 322 321 320 320 319 318 318 317 316 315 314 313 312 311 310 309 309 307 305 304 303 302 301 300 299 298 298 297 297 296 296 296 295 295 295 294 294 294 293 293 292 292 291 291 291 290 289 289 288 288 287 287 287 286 286 286 286 285 285 285 285 285 285 285 285 285 285 284 284 284 283 282 282 281 281 280 280 279 278 278 277
331 330 329 329 328 327 325 324 323 322 321 320 318 317 316 315 314 313 312 312 311 310 308 307 306 305 304 303 302 301 300 300 299 299 298 298 297 297 296 296 295 295 294 294 293 293 293 292 292 291 291 290 290 289 289 289 288 288 288 288 288 287 287 287 287 287 287 287 287 287 286 286 285 285 284 283 283 282 282 281 280 280 279 279 278 278
336 335 333 332 331 329 328 326 325 323 321 320 319 319 318 316 315 314 313 313 312 310 309 309 308 307 306 305 304 304 303 303 302 301 301 301 300 300 299 299 298 298 298 297 297 296 296 295 295 294 293 293 292 292 291 291 291 290 290 290 290 289 289 289 289 289 289 289 288 288 288 287 286 286 285 285 284 283 282 282 281 280 280 279 279 279
340 338 336 334 333 332 330 328 327 325 324 324 323 322 321 320 318 316 316 317 315 313 312 311 310 309 308 308 307 307 307 306 305 305 305 305 304 304 304 303 303 302 302 301 301 300 299 298 298 297 296 296 295 295 294 294 293 293 292 292 292 292 292 292 292 292 291 291 290 290 289 289 288 288 287 286 285 284 284 283 282 282 281 281 280 280
342 341 339 338 337 336 334 332 332 331 331 330 328 327 326 325 322 320 320 321 319 317 317 315 314 314 313 312 312 311 310 310 309 309 308 308 307 307 306 306 305 305 304 303 303 302 301 300 300 299 298 297 297 296 295 295 294 294 294 294 294 294 294 294 294 294 293 293 292 292 291 291 290 290 289 288 287 286 285 285 284 284 283 283 283 282
345 344 343 343 342 342 341 341 340 339 337 335 334 333 332 331 328 324 324 325 323 322 321 320 319 319 317 316 316 315 314 313 312 311 311 310 309 309 308 308 307 306 306 305 304 303 302 301 300 299 299 298 297 297 296 296 296 296 296 296 296 296 295 295 295 294 294 294 293 293 293 292 292 291 290 289 288 288 287 287 286 286 285 285 285 285
350 349 348 348 348 348 347 347 345 343 341 340 340 340 338 337 335 331 330 330 329 328 327 325 324 323 321 321 320 318 317 315 314 314 313 312 312 311 310 309 308 307 306 305 304 303 302 302 301 301 300 300 299 299 298 298 298 298 298 298 298 298 297 296 296 296 295 295 295 294 294 294 293 292 291 290 289 289 288 288 287 287 287 287 286 286
355 354 353 352 352 352 351 350 350 349 349 348 347 346 345 343 342 339 337 336 335 333 331 329 328 326 325 324 322 321 319 317 317 317 316 315 314 313 312 311 309 308 307 306 306 305 304 304 304 303 303 302 302 302 301 301 301 301 301 301 300 299 298 298 298 297 297 297 296 296 295 295 294 293 292 291 290 290 289 288 288 288 288 287 287 286
358 357 357 356 356 356 356 356 356 355 355 354 352 350 349 348 348 346 343 340 339 337 335 333 331 329 327 326 324 323 321 320 319 319 318 317 316 315 314 313 312 311 310 309 308 308 307 307 307 306 306 305 304 304 304 304 304 303 302 302 301 300 299 299 299 299 299 298 298 297 297 296 295 294 293 292 291 290 290 289 289 289 288 288 287 286
0 359 359 359 359 360 0 0 360 358 357 356 355 354 353 352 352 350 347 344 343 341 338 335 333 331 330 329 327 326 325 323 322 322 320 319 318 317 316 315 314 313 313 312 311 310 310 310 309 309 308 307 307 307 307 306 306 305 304 303 302 302 301 301 302 301 301 301 300 300 299 298 297 296 295 293 292 292 291 291 290 290 289 289 287 286
3 3 3 3 3 3 2 2 1 0 359 359 358 357 356 354 354 352 350 348 345 343 341 338 336 335 333 332 331 329 328 327 325 324 323 322 321 320 318 317 317 316 315 314 313 313 313 313 312 311 311 310 310 310 310 309 309 308 307 306 305 305 305 305 305 305 304 304 303 302 301 300 299 298 296 295 294 293 293 293 292 292 291 290 288 286
5 5 5 4 4 4 4 3 2 2 1 0 360 359 358 357 355 353 352 351 348 346 344 342 340 338 337 336 335 333 332 331 329 328 326 325 324 323 321 320 320 319 318 317 316 316 316 315 314 314 313 313 313 313 312 312 311 310 309 308 308 308 308 308 308 308 307 306 305 304 303 302 301 300 298 297 296 296 295 295 294 293 292 291 288 287
5 5 5 4 4 4 4 4 3 2 2 2 1 1 360 358 357 355 354 353 351 349 348 346 344 342 341 340 339 338 336 335 333 331 330 329 328 326 325 324 324 323 322 320 319 319 319 318 317 317 316 316 316 315 315 314 312 311 310 310 310 310 311 311 310 309 308 308 307 306 305 304 303 301 299 299 298 297 297 297 296 295 294 292 290 289
5 5 5 4 4 4 4 5 4 3 2 2 1 1 0 359 358 357 356 355 353 352 350 349 347 346 344 344 343 341 340 338 337 335 334 333 332 331 330 329 329 327 326 324 324 323 323 322 321 321 321 320 320 319 318 316 315 314 313 312 312 312 312 312 311 311 310 309 308 307 307 306 304 302 301 301 300 299 299 299 298 297 296 294 292 291
4 5 4 4 4 4 4 4 4 4 3 2 2 1 1 360 359 358 357 356 355 354 352 351 350 348 347 346 345 344 342 341 340 339 337 336 335 335 334 333 332 331 330 329 328 328 327 326 325 325 325 325 324 323 321 320 318 317 316 316 315 315 315 314 314 313 312 311 310 309 308 307 305 304 304 303 302 301 301 301 300 298 296 294 293 292
4 4 4 4 4 4 4 4 4 4 3 3 2 2 1 0 359 359 358 358 357 356 354 353 351 350 348 348 347 346 344 343 342 341 340 339 338 337 337 336 335 334 333 332 332 331 330 329 329 328 328 328 327 326 324 323 321 320 320 319 318 318 318 317 316 315 314 313 312 312 311 309 308 307 307 305 303 303 302 302 301 300 298 295 294 293
4 4 4 4 4 4 4 4 4 4 3 3 2 2 1 0 360 359 359 358 358 357 355 354 352 351 350 349 348 347 346 345 344 343 342 341 340 339 339 338 337 336 335 334 334 333 332 331 331 330 330 330 329 328 326 325 324 323 322 322 321 321 321 320 319 318 317 316 315 314 313 311 310 309 308 306 304 304 304 303 302 301 299 297 295 294
4 4 4 4 4 4 3 3 3 3 3 3 2 2 1 1 0 359 359 358 358 357 356 355 354 352 351 350 349 349 348 347 346 345 344 343 342 342 341 341 339 338 337 336 336 335 333 333 332 332 332 332 331 330 329 327 326 325 324 324 323 323 323 323 322 321 319 318 317 317 315 313 312 311 309 307 306 305 305 305 304 303 301 298 296 295
4 4 4 4 4 4 3 3 3 3 3 2 2 2 1 1 0 360 359 359 358 357 357 356 355 354 352 352 351 350 349 348 348 347 346 345 344 344 343 343 341 340 339 338 337 336 335 335 335 335 334 334 333 332 331 329 328 327 327 326 326 325 325 325 324 323 322 321 320 319 317 315 314 313 312 310 308 307 307 308 307 306 304 301 298 297
4 4 3 3 3 3 3 3 2 2 2 2 2 1 1 1 0 0 359 359 358 358 357 357 356 355 354 353 352 351 350 350 349 349 348 347 347 346 346 345 343 341 341 340 339 338 337 337 337 337 337 336 335 334 333 332 331 330 329 329 329 328 328 327 326 326 324 323 322 321 319 318 317 316 315 314 312 310 310 310 310 308 306 304 301 299
4 4 3 3 3 3 3 3 2 2 1 1 1 1 1 1 0 0 360 359 358 358 357 357 356 356 355 354 353 352 351 351 351 351 350 349 348 348 347 346 345 343 342 342 341 340 340 339 339 340 339 339 337 336 335 334 333 332 332 332 332 331 330 329 328 328 326 325 324 323 322 321 320 319 318 317 315 313 312 312 312 310 308 305 303 301
4 4 3 3 3 3 2 2 2 2 1 1 1 1 1 0 0 0 360 359 359 358 358 357 357 356 356 355 354 353 353 352 352 352 351 350 349 349 349 348 346 345 344 344 343 342 341 341 341 342 341 340 339 338 338 337 336 335 334 334 334 333 331 330 330 329 329 328 327 326 325 324 323 322 321 320 318 316 315 314 314 312 309 306 304 302
4 4 3 3 3 2 2 2 2 1 1 1 1 1 1 0 0 0 0 360 359 358 358 358 357 357 356 356 355 354 353 353 353 353 352 351 350 350 350 349 348 347 346 346 345 344 343 343 343 343 343 343 342 341 341 340 338 337 337 337 336 334 333 332 332 331 331 330 329 328 327 327 326 325 323 322 321 319 317 316 316 315 313 309 307 305